EW7594 Weather Reports


time (UTC)temp
C
wind
direction
speed
KPH
gust
KPH
rain 1hr
cm
rain 24hr
cm
rain mn
cm
humidity
%
barometer
mb
20260505024824 11 0 0.0 6.4 0.00 0.20 0.18 89 1025.2
20260505023925 11 0 0.0 3.2 0.00 0.20 0.18 88 1025.2
20260505023025 11 0 0.0 3.2 0.00 0.20 0.18 90 1025.3
20260505022425 11 0 0.0 4.8 0.00 0.20 0.18 90 1025.4
20260505021503 11 0 0.0 3.2 0.00 0.20 0.18 90 1025.4
20260505020604 11 0 0.0 1.6 0.00 0.20 0.18 90 1025.4
20260505015704 11 0 0.0 3.2 0.00 0.20 0.18 90 1025.4
20260505014804 11 0 0.0 3.2 0.00 0.20 0.18 90 1025.6
20260505013925 11 0 0.0 3.2 0.00 0.20 0.18 90 1025.5
20260505013004 11 0 0.0 1.6 0.00 0.23 0.18 89 1025.5
20260505012403 11 0 0.0 3.2 0.00 0.23 0.18 88 1025.4
20260505011503 11 0 0.0 3.2 0.00 0.23 0.18 88 1025.3
20260505010603 11 0 0.0 3.2 0.00 0.23 0.18 89 1025.3
20260505005704 11 0 0.0 4.8 0.00 0.23 0.18 89 1025.1
20260505004804 11 0 0.0 4.8 0.00 0.23 0.18 89 1025.1
20260505003903 11 0 0.0 4.8 0.00 0.23 0.18 89 1024.9
20260505003003 11 0 0.0 3.2 0.00 0.23 0.18 90 1024.9
20260505002404 11 0 0.0 4.8 0.00 0.23 0.18 91 1024.9
20260505001504 10 0 0.0 6.4 0.00 0.25 0.18 91 1024.7
20260505000604 10 218 1.6 6.4 0.00 0.25 0.18 91 1024.8
20260504235703 10 0 0.0 6.4 0.00 0.25 0.18 92 1024.7
20260504234804 10 0 0.0 6.4 0.00 0.25 0.18 93 1024.7
20260504233925 10 0 0.0 6.4 0.00 0.25 0.18 95 1024.7
20260504233003 10 0 0.0 1.6 0.00 0.25 0.18 96 1024.6
20260504232403 10 0 0.0 1.6 0.00 0.25 0.18 96 1024.6
20260504231504 10 0 0.0 0.0 0.00 0.28 0.18 96 1024.5
20260504230604 10 0 0.0 1.6 0.00 0.30 0.18 96 1024.5
20260504225704 10 0 0.0 1.6 0.03 0.33 0.18 97 1024.4
20260504224804 10 0 0.0 1.6 0.03 0.33 0.18 96 1024.2
20260504223903 10 0 0.0 4.8 0.03 0.33 0.18 97 1024.3
20260504223024 10 0 0.0 1.6 0.05 0.36 0.18 97 1024.2
20260504222425 10 0 0.0 0.0 0.05 0.36 0.18 96 1024.1
20260504221503 10 0 0.0 0.0 0.05 0.36 0.18 97 1023.9
20260504220603 10 0 0.0 0.0 0.05 0.38 0.18 96 1023.9
20260504215704 10 0 0.0 3.2 0.03 0.43 0.15 96 1023.8
20260504214803 9 0 0.0 6.4 0.03 0.48 0.15 96 1023.8
20260504213903 9 0 0.0 1.6 0.03 0.53 0.15 96 1023.7
20260504213003 9 0 0.0 4.8 0.00 0.53 0.15 96 1023.5
20260504212404 9 0 0.0 6.4 0.03 0.53 0.15 96 1023.5
20260504211503 9 0 0.0 6.4 0.05 0.53 0.15 96 1023.3
20260504210604 10 0 0.0 1.6 0.05 0.61 0.15 96 1023.2
20260504205703 10 0 0.0 3.2 0.05 0.69 0.15 96 1023.1
20260504204803 10 0 0.0 6.4 0.05 0.79 0.15 96 1023.0
20260504203903 10 0 0.0 4.8 0.05 0.79 0.15 96 1022.9
20260504203004 10 0 0.0 8.0 0.05 0.79 0.15 96 1022.9
20260504202404 10 0 0.0 3.2 0.05 0.81 0.13 96 1022.9
20260504201504 10 0 0.0 3.2 0.03 0.81 0.10 96 1022.8
20260504200603 10 0 0.0 6.4 0.03 0.91 0.10 96 1022.8
20260504195704 10 0 0.0 6.4 0.03 0.91 0.10 96 1022.7
20260504194803 10 0 0.0 1.6 0.03 0.99 0.10 96 1022.5
20260504193903 10 0 0.0 4.8 0.05 0.99 0.10 96 1022.5
20260504193003 10 0 0.0 4.8 0.03 0.99 0.08 96 1022.5
20260504192403 10 0 0.0 8.0 0.03 0.99 0.08 96 1022.4
20260504191503 10 0 0.0 8.0 0.03 0.99 0.08 96 1022.3
20260504190603 10 0 0.0 1.6 0.03 0.99 0.08 96 1022.2
20260504185704 10 0 0.0 1.6 0.03 1.09 0.08 96 1022.2
20260504184803 10 220 1.6 4.8 0.03 1.09 0.08 96 1022.1
20260504183904 10 232 1.6 8.0 0.00 1.09 0.05 96 1022.0
20260504183004 10 0 0.0 6.4 0.03 1.09 0.05 96 1021.9
20260504182403 10 0 0.0 4.8 0.03 1.09 0.05 96 1021.9
20260504181503 10 0 0.0 4.8 0.03 1.09 0.05 96 1021.9
20260504180624 10 0 0.0 8.0 0.03 1.09 0.05 96 1021.9
20260504175703 10 0 0.0 6.4 0.03 1.14 0.05 96 1021.8
20260504174803 10 0 0.0 3.2 0.03 1.19 0.05 96 1021.9
20260504173904 10 0 0.0 3.2 0.03 1.22 0.05 96 1021.9
20260504173003 10 0 0.0 3.2 0.03 1.19 0.05 95 1022.0
20260504172404 10 0 0.0 3.2 0.03 1.19 0.05 95 1022.1
20260504171503 10 228 1.6 8.0 0.03 1.19 0.05 95 1022.1
20260504170604 10 232 1.6 4.8 0.03 1.19 0.05 95 1022.1
20260504150603 10 0 0.0 0.0 0.00 1.45 0.00 94 1022.0
20260504140603 10 0 0.0 3.2 0.00 2.31 2.21 95 1021.7
20260504130603 10 0 0.0 6.4 0.00 2.64 2.21 94 1021.5
20260504110603 10 0 0.0 3.2 0.03 2.79 2.21 95 1020.7
20260504100603 11 0 0.0 4.8 0.00 2.82 2.21 94 1019.9
20260504081503 12 218 1.6 8.0 0.00 4.09 2.21 89 1018.3
20260504080624 12 231 1.6 9.7 0.00 4.09 2.21 88 1018.3
20260504050603 12 232 3.2 16.1 0.00 4.19 2.21 96 1016.5
20260504045703 12 225 3.2 14.5 0.00 4.19 2.21 96 1016.3
20260504044824 12 217 1.6 16.1 0.00 4.19 2.21 96 1016.3
20260504043903 11 214 3.2 14.5 0.00 4.19 2.21 95 1016.2
20260504043003 12 224 3.2 17.7 0.00 4.19 2.21 96 1016.1
20260504042403 12 235 3.2 17.7 0.00 4.19 2.21 95 1016.1
20260504041503 12 242 1.6 8.0 0.00 4.19 2.21 96 1016.0
20260504040603 12 218 1.6 6.4 0.00 4.19 2.21 96 1016.1
20260504035724 11 217 1.6 12.9 0.00 4.19 2.21 96 1016.1
20260504034824 12 224 3.2 11.3 0.00 4.19 2.21 96 1016.2
20260504033903 12 221 3.2 17.7 0.00 4.19 2.21 96 1016.2
20260504033003 12 209 1.6 6.4 0.00 4.19 2.21 97 1016.2
20260504032403 12 238 1.6 8.0 0.00 4.19 2.21 97 1016.1
20260504031524 12 222 3.2 12.9 0.00 4.19 2.21 97 1016.2
20260504030624 11 227 3.2 19.3 0.00 4.19 2.21 97 1016.3
20260504025703 11 238 1.6 9.7 0.00 4.19 2.21 97 1016.4